#timestamp,LO_Frequency,Hit,StdDev 
1562605215.6,286047001.5,N
1562605235.5,286047003.9,N
1562605255.3,286047002.5,N
1562605275.2,286047002.2,N
1562605295.9,286047000.2,N
1562605315.7,286047000.3,N
1562605335.6,286047001.2,N
1562605355.4,286047000.1,N
1562605375.3,286047000.3,N
1562605395.1,286046999.7,N
1562605396.0,286046999.7,N
1562605445.9,286046998.4,E
1562605455.8,286047000.1,N
1562605475.6,286047000.4,P
1562605495.5,286046998.2,P
1562605515.3,286046998.6,N
1562605535.1,286047000.9,N
1562605555.9,286047000.0,N
1562605575.7,286047001.5,N
1562605595.6,286047004.2,Y
1562605615.4,286047002.2,P
1562605635.2,286047002.6,N
1562605655.1,286047002.1,N
1562605656.0,286047002.1,N
1562605675.8,286046999.7,N
1562605695.7,286047002.4,N
1562605715.5,286047003.5,Y
1562605735.3,286047000.3,P
1562605755.2,286047000.1,N
1562605775.0,286047000.0,N
1562605775.9,286047000.0,N
1562605795.8,286046999.7,N
1562605815.6,286047002.3,Y
1562605835.5,286047000.1,P
1562605855.3,286047002.7,P
1562605875.1,286047000.1,N
1562605895.9,286047002.0,N
1562605915.7,286047004.3,Y
1562605935.5,286047001.7,P
1562605955.4,286047002.6,P
1562605975.2,286047000.6,N
1562605995.1,286047000.9,N
1562605996.0,286047000.9,N
1562606015.8,286047000.8,N
1562606035.6,286047000.8,N
1562606055.5,286046999.2,N
1562606075.3,286046997.2,Y
1562606095.2,286046997.5,P
1562606115.0,286046995.6,N
1562606115.9,286046995.6,N
1562606135.7,286046995.7,N
1562606155.6,286046996.2,N
1562606175.4,286046995.9,N
1562606195.3,286046996.3,N
1562606215.1,286046995.6,N
1562606216.0,286046995.6,N
1562606235.8,286046995.9,N
1562606255.7,286046993.4,Y
1562606275.5,286046998.8,P
1562606295.4,286046998.2,N
1562606315.2,286046999.5,N
1562606335.0,286046999.5,N
1562606335.9,286046999.5,N
1562606355.8,286046997.1,N
1562606375.6,286046997.9,N
1562606395.4,286046997.8,N
1562606415.3,286046997.3,N
1562606435.1,286046997.0,N
1562606455.9,286046997.3,N
1562606475.7,286046997.4,N
1562606495.5,286046997.7,N
1562606515.4,286046997.6,N
1562606535.2,286046995.3,Y
1562606555.1,286047000.9,P
1562606556.0,286047000.9,N
1562606575.8,286046999.2,N
1562606595.6,286046999.2,N
1562606615.5,286046999.2,N
1562606635.3,286046996.7,Y
1562606655.2,286046997.7,P
1562606675.9,286046996.8,P
1562606695.7,286046997.0,N
1562606715.6,286046996.5,Y
1562606735.4,286047000.2,P
1562606755.3,286046999.9,N
1562606775.1,286046999.8,N
1562606776.0,286046999.8,N
1562606795.8,286047002.6,N
1562606815.7,286047001.5,N
1562606835.5,286047003.6,N
1562606855.3,286047003.5,N
1562606875.2,286047005.8,Y
1562606895.0,286047004.1,P
1562606895.9,286047004.1,N
1562606915.8,286047004.3,N
1562606935.6,286047004.2,Y
1562606955.4,286046999.9,P
1562606975.3,286047000.2,N
1562606995.1,286046999.7,N
1562607015.9,286047002.8,N
1562607035.7,286046999.7,N
1562607055.5,286046999.7,N
1562607075.4,286047000.1,N
1562607095.2,286047002.3,N
1562607115.0,286047000.3,N
1562607116.0,286047000.3,N
1562607135.8,286047000.2,N
1562607155.6,286047002.3,N
1562607175.5,286047001.7,N
1562607195.3,286047001.9,N
1562607215.1,286047002.6,N
1562607235.9,286047002.8,N
1562607255.7,286047000.2,N
1562607275.6,286046999.8,N
1562607295.4,286047001.3,N
1562607315.2,286047000.1,N
1562607335.1,286047000.0,N
1562607336.0,286047000.0,N
1562607355.8,286047000.6,N
1562607375.6,286047000.2,N
1562607395.5,286047000.1,N
1562607415.3,286047002.6,N
1562607435.2,286047002.3,N
1562607455.9,286047002.3,N
1562607475.7,286047002.0,N
1562607495.6,286047002.1,N
1562607515.4,286047004.3,Y
1562607535.3,286047000.1,P
1562607555.1,286047002.5,P
1562607556.0,286047002.5,N
1562607575.8,286047004.1,Y
1562607595.3,286047003.9,P
1562607615.1,286047002.3,N
1562607635.8,286047004.1,P
1562607655.7,286047003.8,Y
1562607675.5,286046998.5,P
1562607695.4,286046999.0,N
1562607715.2,286046996.6,N
1562607735.0,286046997.3,N
1562607735.9,286046997.3,N
1562607755.8,286046997.4,N
1562607775.6,286046998.0,N
1562607795.5,286046998.0,N
1562607815.3,286046995.4,N
1562607835.1,286046996.4,N
1562607855.9,286046997.3,N
1562607875.7,286046997.5,N
1562607895.6,286046995.3,N
1562607915.4,286046994.9,N
1562607935.2,286046997.6,N
1562607955.1,286046995.6,N
1562607956.0,286046995.6,N
1562607975.8,286046995.7,N
1562607995.7,286046995.0,N
1562608015.5,286046995.2,N
1562608035.3,286046995.5,N
1562608055.2,286046996.1,N
1562608075.0,286046996.8,N
1562608075.9,286046996.8,N
1562608095.7,286046995.5,N
1562608115.6,286046995.6,N
1562608135.4,286046994.3,Y
1562608155.3,286046996.9,P
1562608175.1,286046998.7,P
1562608195.8,286047000.0,N
1562608215.7,286047001.2,N
1562608235.5,286046998.1,N
1562608255.4,286047000.0,N
1562608275.2,286047001.1,N
1562608295.0,286047002.5,N
1562608295.9,286047002.5,N
1562608315.8,286047000.4,N
1562608335.6,286046999.9,N
1562608355.4,286047002.1,N
1562608375.3,286047004.1,N
1562608395.1,286047003.5,N
1562608415.9,286047004.4,N
1562608435.7,286047001.8,N
1562608455.5,286047001.9,N
1562608475.4,286047002.8,N
1562608495.2,286047002.8,N
1562608515.1,286047001.6,N
1562608516.0,286047001.6,N
1562608535.8,286047001.6,N
1562608555.6,286047004.4,N
1562608575.5,286047002.0,N
1562608595.3,286047004.0,N
1562608615.1,286047002.4,N
1562608635.9,286047002.3,N
1562608655.7,286047001.3,N
1562608675.6,286047004.2,N
1562608695.4,286047002.1,N
1562608715.2,286046998.5,N
1562608735.1,286046998.2,N
1562608736.0,286046998.2,N
1562608755.8,286047001.0,N
1562608775.7,286046999.8,N
1562608795.5,286047002.2,N
